Location: Prague
(50.0830°N, 14.4670°E)
Time: 17:07:02
(UTC+01:00)

UNISAT 6 - Visible Passes

Search period start: 03 December 2021 00:00
Search period end: 13 December 2021 00:00
Orbit: 605 x 688 km, 97.7° (Epoch: 02 December)

Date Brightness Start Highest point End Pass type
(mag) Time Alt. Az. Time Alt. Az. Time Alt. Az.
03 Dec ? 04:46:19 10° ESE 04:49:32 21° ENE 04:52:46 10° NNE visible
03 Dec ? 06:21:47 10° S 06:25:57 49° W 06:30:06 10° NNW visible
04 Dec ? 05:11:02 10° SE 05:14:54 34° ENE 05:18:46 10° N visible
04 Dec ? 06:47:57 10° SSW 06:51:39 28° W 06:55:20 10° NW visible
05 Dec ? 05:36:08 10° SSE 05:40:21 60° ENE 05:44:33 10° N visible
06 Dec ? 04:27:20 10° E 04:29:44 15° ENE 04:32:08 10° NNE visible
06 Dec ? 06:01:37 10° S 06:05:52 77° WSW 06:10:09 10° NNW visible
07 Dec ? 04:51:37 10° ESE 04:55:01 24° ENE 04:58:25 10° N visible
07 Dec ? 06:27:27 10° S 06:31:30 42° W 06:35:34 10° NNW visible
08 Dec ? 05:16:27 10° SE 05:20:24 39° ENE 05:24:22 10° N visible
08 Dec ? 06:53:44 10° SSW 06:57:13 24° W 07:00:44 10° NW visible
08 Dec ? 18:47:18 11° S 18:47:18 11° S 18:47:26 10° S visible
09 Dec ? 04:09:27 10° ENE 04:09:58 10° NE 04:10:31 10° NE visible
09 Dec ? 05:41:38 10° SSE 05:45:52 69° ENE 05:50:06 10° N visible
09 Dec ? 19:13:03 11° SSW 19:13:03 11° SSW 19:13:13 10° SSW visible
10 Dec ? 04:32:30 10° E 04:35:11 17° ENE 04:37:53 10° NNE visible
10 Dec ? 06:07:11 10° S 06:11:24 67° WSW 06:15:40 10° NNW visible
11 Dec ? 04:56:56 10° ESE 05:00:29 27° ENE 05:04:01 10° N visible
11 Dec ? 06:33:07 10° SSW 06:37:03 37° W 06:41:02 10° NNW visible
11 Dec ? 18:26:49 11° SSE 18:26:49 11° SSE 18:27:02 10° SSE visible
12 Dec ? 05:21:50 10° SE 05:25:53 44° ENE 05:29:45 11° N visible
12 Dec ? 06:59:31 10° SW 07:02:48 22° W 07:06:06 10° NW visible
12 Dec ? 18:52:33 13° S 18:52:33 13° S 18:53:07 10° S visible
